Location: Buckeye Ditch
(40.9104°N, 122.9517°W)
Time: 23:35:22
(UTC+00:00)

Transit 2A - Pass Details

Date: 28 May 2025
Orbit: 599 x 947 km, 66.7° (Epoch: 20 June)

Event Time Altitude Azimuth Distance (km) Brightness Sun altitude
Rises 20:52:56 0° 340° (NNW) 2,892 8.8 68.6°
Reaches altitude 10° 20:55:29 10° 354° (N) 2,015 8.1 68.4°
Maximum altitude 20:59:16 25° 51° (NE) 1,315 7.3 68.0°
Drops below altitude 10° 21:03:15 10° 107° (ESE) 2,145 8.4 67.6°
Sets 21:06:02 0° 120° (ESE) 3,123 9.1 67.3°
